Home   Weather   Marburg   Past weeks

Flag for Germany Past Weather in Marburg, Hesse, Germany — Yesterday and Last 2 Weeks

Now
61 °F

Passing clouds.


Feels Like: 61 °F
Forecast: 52 / 65 °F
Wind: 12 mph from Southwest

Location: Fritzlar Airport

Current Time: Aug 19, 2017 at 1:55:44 am

Latest Report: Aug 19, 2017 at 1:20 am


Visibility: N/A

Pressure: 29.95 "Hg

Humidity: 88%

Dew Point: 57 °F

Location of MarburgLocation

Past Weather in Marburg — Graph

°F

Marburg Temperature Yesterday

Maximum temperature yesterday: 73 °F (at 2:20 pm)
Minimum temperature yesterday: 59 °F (at 11:20 pm)
Average temperature yesterday: 65 °F

High & Low Weather Summary for the Past Weeks

 TemperatureHumidityPressure
High79 °F (Aug 15, 2:20 pm)100% (Aug 11, 4:20 am)30.21 "Hg (Aug 11, 4:20 am)
Low46 °F (Aug 7, 5:20 am)34% (Aug 7, 3:20 pm)29.80 "Hg (Aug 8, 4:20 pm)
Average63 °F78%30.04 "Hg
* Reported Aug 4 12:20 am — Aug 19 12:20 am, Marburg. Weather by CustomWeather, © 2017

Note: Actual official high and low records may vary slightly from our data, if they occured in-between our weather recording intervals... More about our weather records

Advertising

Marburg Weather History for the Previous 24 Hours

Scroll right to see more
 ConditionsComfort  
Time TempWeatherWind HumidityBarometerVisibility
12:20 am
Sat, Aug 19
59 °FPassing clouds.2 mph94%29.95 "HgN/A
11:20 pm
Fri, Aug 18
59 °FPassing clouds.8 mph94%29.92 "HgN/A
10:20 pm61 °FPassing clouds.5 mph88%29.92 "HgN/A
9:20 pm63 °FPassing clouds.3 mph94%29.92 "HgN/A
8:20 pm63 °FScattered clouds.3 mph94%29.89 "HgN/A
7:20 pm63 °FLight rain. Fog.5 mph94%29.89 "Hg3 mi
6:20 pm63 °FLight rain. Fog.3 mph94%29.89 "Hg3 mi
5:47 pm63 °FLight rain. Partly sunny.1 mph100%29.89 "Hg4 mi
5:20 pm63 °FHeavy rain. Fog.5 mph94%29.89 "Hg1 mi
4:46 pm66 °FRain. Partly sunny.5 mph88%29.86 "Hg4 mi
4:20 pm66 °FLight rain. Partly sunny.3 mph88%29.86 "HgN/A
3:34 pm70 °FRain. Partly sunny.8 mph78%29.86 "HgN/A
2:20 pm73 °FPartly sunny.14 mph69%29.89 "HgN/A
1:20 pm72 °FBroken clouds.12 mph78%29.92 "HgN/A
12:20 pm70 °FLight rain. Partly sunny.13 mph83%29.92 "HgN/A
12:00 pm70 °FLight rain. Broken clouds.14 mph78%29.92 "HgN/A
11:20 am70 °FPartly sunny.12 mph78%29.92 "HgN/A
10:20 am68 °FBroken clouds.5 mph83%29.92 "HgN/A
9:20 am64 °FPartly sunny.5 mph94%29.95 "HgN/A
8:28 am64 °FLight rain. Partly sunny.2 mph88%29.95 "HgN/A
7:20 am64 °FPartly sunny.3 mph88%29.95 "HgN/A
6:20 am64 °FScattered clouds.2 mph88%29.98 "HgN/A
5:20 am61 °FPassing clouds.5 mph94%29.98 "HgN/A
4:20 am61 °FPassing clouds.5 mph94%29.98 "HgN/A
3:20 am61 °FPassing clouds.5 mph94%30.01 "HgN/A
2:20 am61 °FPartly cloudy.6 mph94%30.01 "HgN/A
1:20 am63 °FPartly cloudy.3 mph88%30.01 "HgN/A
Weather by CustomWeather, © 2017

See weather overviewHow to use our weather pages